Preview of NWS' New Version of Forecast
This preview is not operational and should not be used for support decisions.

Regional Weather Roundup (RWR)

Issued by National Weather Service (NWS)

                            
000
ASUS43 KMKX 230911
RWRWI 

WISCONSIN REGIONAL WEATHER ROUNDUP
NATIONAL WEATHER SERVICE MILWAUKEE/SULLIVAN WI
400 AM CDT MON SEP 23 2019

NOTE: "FAIR" INDICATES FEW OR NO CLOUDS BELOW 12,000 FEET WITH NO
SIGNIFICANT WEATHER AND/OR OBSTRUCTIONS TO VISIBILITY.

WIZ001-002-006>008-014>016-023>028-231000-
NORTHWEST WISCONSIN
  
CITY           SKY/WX    TMP DP  RH WIND       PRES   REMARKS
SUPERIOR ARPT  MOCLDY    54  53  98 CALM      29.87S                  
ASHLAND        FAIR      54  52  93 W5        29.86S                  
HAYWARD        CLOUDY    54  52  93 CALM      29.90R                  
SIREN          FAIR      54  53  95 W3        29.90S                  
CUMBERLAND     MOCLDY    52  50  93 SW5       29.91S                  
RICE LAKE      FAIR      54  39  58 CALM      29.92S                  
CHETEK         MOCLDY    53  53  99 CALM      29.92R                  
LADYSMITH      FAIR      55  55  99 W6        29.92R                  
EAU CLAIRE     MOCLDY    56  52  86 SW6       29.92R                  
MENOMONIE      MOCLDY    53  51  92 SW7       29.93R                  
NEW RICHMOND   FAIR      52  51  97 SW5       29.93R                  
OSCEOLA        FAIR      53  53 100 SW3       29.95R                  
$$
 
WIZ003>005-009-010-017-018-231000-
NORTH CENTRAL WISCONSIN
  
CITY           SKY/WX    TMP DP  RH WIND       PRES   REMARKS
MANITOWISH WTR CLOUDY    52  52 100 W5        29.86S                  
ARBOR VITAE    CLOUDY    57  53  87 W5        29.86F                  
WOODRUFF       CLOUDY    57  53  87 W5        29.86F                  
RHINELANDER    CLOUDY    53  51  93 W7        29.86F                  
EAGLE RIVER    RAIN      53  53 100 W6        29.85S                  
LAND O LAKES   NOT AVBL                                               
PHILLIPS       FAIR      52  52 100 CALM      29.88S                  
TOMAHAWK       FAIR      51  50  97 W5        29.88S                  
MEDFORD        FAIR      52  51  97 W7        29.90S                  
MERRILL        FAIR      53  53 100 W5        29.88S                  
$$
 
WIZ029-030-035-036-043>047-231000-
CENTRAL WISCONSIN
  
CITY           SKY/WX    TMP DP  RH WIND       PRES   REMARKS
WAUSAU         CLOUDY    55  54  96 W8        29.87S                  
MOSINEE        CLOUDY    54  52  94 W7        29.90S                  
MARSHFIELD     CLOUDY    54  52  93 W9        29.91R                  
STEVENS POINT  CLOUDY    54  54 100 W6        29.91R                  
WAUPACA        FAIR      56  55  95 W5        29.90R                  
WAUTOMA        CLOUDY    56  54  93 W8        29.92R                  
WISC RAPIDS    CLOUDY    55  53  93 W7        29.92R                  
CAMP DOUGLAS   FAIR      49  49 100 W6        29.94R FOG              
$$
 
WIZ011>013-019>022-031-037>040-048>050-231000-
NORTHEAST WISCONSIN
  
CITY           SKY/WX    TMP DP  RH WIND       PRES   REMARKS
ANTIGO         CLOUDY    53  52  98 W7        29.87S                  
SHAWANO        CLOUDY    59  57  92 W5        29.86S                  
OCONTO         CLOUDY    57  56  97 W5        29.84S                  
STURGEON BAY   CLOUDY    58  55  90 W7        29.84S                  
GREEN BAY      CLOUDY    60  57  89 W7        29.86S                  
MANITOWOC      CLOUDY    59  57  94 W7        29.87S                  
APPLETON       FAIR      54  54 100 W8        29.87R                  
CLINTONVILLE   FAIR      56  54  91 W5        29.87S                  
OSHKOSH        FAIR      55  53  93 MISG      29.89R                  
$$
 
WIZ032>034-041-042-053>061-231000-
SOUTHWEST WISCONSIN
  
CITY           SKY/WX    TMP DP  RH WIND       PRES   REMARKS
LA CROSSE      NOT AVBL                                               
SPARTA         FAIR      48  48 100 SW5       29.95R                  
VIROQUA        FAIR     N/A N/A N/A W5        29.96R                  
BOSCOBEL       FAIR      55  53  93 S5        29.97S                  
PRAIRIE DU CHI FAIR      54  52  94 NW3       29.98S                  
PLATTEVILLE    FAIR      54  54 100 W3        29.97S                  
$$

WIZ056-057-062-063-064-067-068-231000-
SOUTH CENTRAL WISCONSIN
  
CITY           SKY/WX    TMP DP  RH WIND       PRES   REMARKS
REEDSBURG      FAIR      53  53 100 W5        29.94S                  
BARABOO/DELLS  FAIR      51  51  99 W5        29.94R                  
LONE ROCK      FAIR      56  54  93 W8        29.95S                  
MINERAL POINT  FAIR      54  54 100 W5        29.96R                  
MADISON        FAIR      56  52  86 W6        29.93R                  
MIDDLETON      FAIR      55  53  91 NW3       29.94R                  
WATERTOWN      FAIR      55  55 100 W5        29.92R                  
MONROE         FAIR      56  55  97 W5        29.95R                  
JANESVILLE     FAIR      57  57 100 W6        29.94R                  
$$
 
WIZ051-052-058>065-066-070>072-231000-
SOUTHEAST WISCONSIN
  
CITY           SKY/WX    TMP DP  RH WIND       PRES   REMARKS
MILWAUKEE      FAIR      62  56  80 NW13G21   29.89R                  
WAUKESHA       FAIR      54  52  94 W10       29.92R                  
MILWAUKEE/TIMM CLOUDY    57  54  88 W8        29.91R                  
RACINE         MOCLDY    63  59  87 W7        29.90R                  
KENOSHA        FAIR      63  60  90 NW9       29.90R                  
FOND DU LAC    FAIR      57  53  86 W8        29.90R                  
SHEBOYGAN      FAIR      59  56  89 W7        29.87R                  
WEST BEND      FAIR      55  54  94 W12       29.89S                  
JUNEAU         FAIR      54  53  97 CALM      29.92S                  
$$

LSZ147-162-231000-
LAKE SUPERIOR
  
STATION/POSITION TIME  TEMP    WIND        PRES    WAVE
                       AIR SEA DIR/SP/G            HT/PER
                 (UTC) (F)     (DEG/KT/KT) (MB)    (FT/S)
W MID LAKE BUOY  0850   54 54  280/ 10/ 12 1009.6R   1/ 4
DEVILS ISLAND    0800   54     250/ 16/ 19 1010.5S
SAXON HARBOR     0830   59     220/  5/ 10 1010.5S
$$
 
LMZ867-665-643>646-231000-
LAKE MICHIGAN
  
STATION/POSITION TIME  TEMP    WIND        PRES    WAVE
                       AIR SEA DIR/SP/G            HT/PER
                 (UTC) (F)     (DEG/KT/KT) (MB)    (FT/S)
CHAMBERS ISLAND  0840   58     240/  5/ 11   N/A
N MID LAKE BUOY  0850   60 62  280/ 16/ 17 1009.5R   2/ 6
NORTHPORT PIER   0840   60     270/  7/ 12 1009.1S
KEWAUNEE LAKESHO 0824   58      CALM  /  3 1010.2
SHEBOYGAN LAKESH 0900   60     290/ 10/ 12 1011.4R
PORT WASHINGTON  0840   60     300/  7/ 11 1012.9R
S MID LAKE BUOY  0850   66 69  310/ 19/ 23 1011.3R   2/ 3
KENOSHA   LAKESH 0900   62     300/ 10/ 15 1012.2
$$

TC  - TEMPERATURE IN CELSIUS
VSB - VISIBILITY IN STATUTE MILES
WCI - WIND CHILL INDEX
HX  - HEAT INDEX